Regional Weather Roundup
Issued by NWS

Home | Current Version | Previous Version | Text Only | Print | Product List | Glossary On
Versions: 1 2 3 4 5 6 7 8 9 10 11 12 13 14 15 16 17 18 19 20 21 22 23 24 25 26 27 28 29 30 31 32 33 34 35 36 37 38 39 40 41 42 43 44 45 46 47 48 49 50
000
ASUS45 KBOU 030907
RWRCO

WEATHER ROUNDUP FOR COLORADO
NATIONAL WEATHER SERVICE DENVER/BOULDER CO
300 AM MDT THU SEP 03 2015

NOTE: "FAIR" INDICATES FEW OR NO CLOUDS BELOW 12000 FEET WITH NO
SIGNIFICANT WEATHER AND/OR OBSTRUCTIONS TO VISIBILITY.

COZ001>005-013-030-031-031000-
...NORTHWEST COLORADO...

CITY           SKY/WX    TMP DP  RH WIND       PRES   REMARKS
CRAIG          PTCLDY    48  45  89 CALM      30.11F
HAYDEN         NOT AVBL
MEEKER         PTCLDY    53  47  79 CALM      30.13S
MOUNT WERNER   NOT AVBL
STEAMBOAT SPGS PTCLDY    50  44  80 CALM      30.17F
WALDEN         MOCLDY    45  36  70 E5        30.25S
$$

COZ006>008-011-031000-
...WEST CENTRAL VALLEYS...

CITY           SKY/WX    TMP DP  RH WIND       PRES   REMARKS
GRAND JUNCTION MOCLDY    71  49  45 E14       30.01F
MONTROSE       MOCLDY    66  48  52 SE10      30.14S
EAGLE          PTCLDY    54  46  76 E5        30.20S
RIFLE          PTCLDY    59  52  77 CALM      30.09S
DELTA          MOCLDY    65  49  58 NE7       30.08F
NUCLA          MOCLDY    66  45  45 E6        30.17S
$$

COZ017>023-064>068-031000-
...SOUTHWEST COLORADO...

CITY           SKY/WX    TMP DP  RH WIND       PRES   REMARKS
DURANGO        CLOUDY    61  50  67 N7        30.23F
CORTEZ         CLOUDY    61  57  87 SW3       30.16S
PAGOSA SPRINGS CLOUDY    57  46  66 CALM      30.31S
TELLURIDE      CLOUDY    57  44  60 CALM      30.37F
WOLF CREEK PAS NOT AVBL
$$

COZ009-010-012-014-032>034-037-058>063-031000-
...CENTRAL COLORADO...

CITY           SKY/WX    TMP DP  RH WIND       PRES   REMARKS
ASPEN          PTCLDY    53  44  71 SW8       30.24F
BUENA VISTA    MOCLDY    52  43  71 NW3       30.28S
COPPER MTN     MOCLDY    52  36  54 SW3       30.54F
BERTHOUD PASS  MOCLDY    43  30  61 NW18      30.58F
COTTONWOOD PAS MOCLDY    55  37  50 CALM      30.39F
GUNNISON       MOCLDY    48  45  87 CALM      30.32S
KREMMLING      MOCLDY    50  43  76 CALM      30.25R
LEADVILLE      MOCLDY    43  41  93 CALM      30.39F
MONARCH PASS   MOCLDY    43  36  75 SW16      30.64S
SALIDA         MOCLDY    62  45  52 CALM      30.31S
SUNLIGHT       PTCLDY    48  43  81 CALM      30.47F
WILKERSON PASS MOCLDY    46  34  61 W8        30.50F
$$

COZ069>075-031000-
...SAN LUIS VALLEY/SANGRE DE CRISTO MOUNTAINS...

CITY           SKY/WX    TMP DP  RH WIND       PRES   REMARKS
ALAMOSA        MOCLDY    50  47  89 E5        30.26F
LA VETA PASS   PTCLDY    45  41  87 MISG      30.38F
SAGUACHE       MOCLDY    48  43  81 NW3       30.31S
$$

COZ035-036-038>040-031000-
...NORTHERN COLORADO FRONT RANGE...

CITY           SKY/WX    TMP DP  RH WIND       PRES   REMARKS
DENVER INTL AP PTCLDY    67  43  41 SW9       30.01S
DMNS CITY PARK   N/A     67  45  43 E9        30.00F
AURORA         PTCLDY    66  44  43 SW9       30.03F
FRONT RANGE AP NOT AVBL
ERIE MUNI ARPT PTCLDY    58  49  69 CALM      30.00S
BOULDER MUN AP PTCLDY    68  41  37 CALM      30.00S
CENTENNIAL     PTCLDY    65  43  44 S6        30.05S
BROOMFIELD     PTCLDY    72  39  30 W5        30.03F
FORT COLLINS   PTCLDY    63  46  55 N7        30.00S
LONGMONT       PTCLDY    61  47  59 CALM      30.00F
$$

COZ041-046-047-076>085-087-088-031000-
...PIKES PEAK/PALMER DIVIDE AND SOUTHERN FOOTHILLS...

CITY           SKY/WX    TMP DP  RH WIND       PRES   REMARKS
COLO. SPRINGS  PTCLDY    65  43  44 N6        30.08F
A. F. ACADEMY  PTCLDY    68  37  31 NE7       30.10F
ELLICOTT       PTCLDY   N/A N/A N/A E3        30.06F
FALCON         PTCLDY    60  42  50 MISG      30.14S
FORT CARSON    PTCLDY    64  44  48 NW10      30.04F
LIMON          CLEAR     52  47  83 N7        30.02F
MONUMENT HILL  MOCLDY    61  37  41 SW9       30.14F
TRINIDAD       PTCLDY    68  45  43 W17       30.06F
$$

COZ042>045-048>051-090-091-031000-
...NORTHEAST COLORADO...

CITY           SKY/WX    TMP DP  RH WIND       PRES   REMARKS
GREELEY ARPT   PTCLDY    57  46  67 N9        29.97F
AKRON          CLEAR     63  40  42 W10       29.96S
BURLINGTON     CLEAR     59  52  77 W9        29.92F
WRAY           CLOUDY    62  52  71 SW7       29.89S
STERLING       CLEAR     55  50  82 CALM      29.91S
HOLYOKE        PTCLDY    61  57  88 W3        29.89S
FORT MORGAN    CLEAR     63  43  49 CALM      29.96S
$$

COZ086-089-092>099-031000-
...SOUTHEAST COLORADO...

CITY           SKY/WX    TMP DP  RH WIND       PRES   REMARKS
PUEBLO         PTCLDY    69  46  43 W9        29.96F
LA JUNTA       PTCLDY    76  47  35 SW14      29.91F
LAMAR          PTCLDY    64  50  60 S3        29.89S
SPRINGFIELD      N/A     67  54  63 SW8       29.97S
$$




USA.gov is the U.S. government's official web portal to all federal, state and local government web resources and services.